Weather in Zubovo

Russia / Republic of Bashkortostan     54°37′14″N   55°54′07″E
temp.,
°C
wind,
m/s
gust,
m/s
humid.,
%
clouds,
%
prec.,
mm/h
press.,
hPa
HPBL,
m
19 may, wed
wed1923:00+18nw33680 0.3 101734
02:00+15nne410720 0.0 1017217
05:00+14ne36820 0.0 1017124
08:00+17ene34710 0.0 1018278
11:00+22e45550 0.0 10191047
14:00+25ese35430 0.0 10191824
17:00+25sse55380 0.0 10191624
20:00+22sse225211 0.0 101918
20 may, thu
thu2023:00+16se495672 0.0 1020150
02:00+14ese49631 0.0 1021169
05:00+13ese47661 0.0 1021123
08:00+17se510580 0.0 1021382
11:00+21se67400 0.0 10211177
14:00+25se57305 0.0 10191891
17:00+26sse57290 0.0 10182186
20:00+22sse33530 0.0 101736
21 may, fri
fri2123:00+17sse22640 0.0 101813
02:00+15se33536 0.0 101835
05:00+14se475423 0.0 1017114
08:00+18s5115499 0.0 1018511
11:00+20ssw786680 0.4 1018999
14:00+17s598196 0.4 1019396
17:00+23ssw575717 1.4 10181452
20:00+20ssw467111 1.1 1018151
22 may, sat
sat2223:00+16ssw33831 1.5 101938
02:00+15wsw238764 0.0 101932
05:00+13sw2283100 0.0 102022
08:00+17sw2469100 0.0 1021226
11:00+22wsw575494 0.0 10201657
14:00+23w684461 0.0 10202133
17:00+23wnw684562 0.0 10211825
20:00+20wnw256255 0.0 1021136
23 may, sun
sun2323:00+16wsw227059 0.0 102111
02:00+15sse227536 0.0 102112
05:00+14sse3475100 0.0 102061
08:00+17nne457365 0.0 1022357
11:00+20ene326490 0.0 1022718
14:00+23nnw2256100 0.0 1022755
17:00+24ne225466 0.0 1021662
20:00+22e3570100 0.0 1020128